Regional Weather Roundup
Issued by NWS

Home | Current Version | Previous Version | Text Only | Print | Product List | Glossary Off
Versions: 1 2 3 4 5 6 7 8 9 10 11 12 13 14 15 16 17 18 19 20 21 22 23 24 25 26 27 28 29 30 31 32 33 34 35 36 37 38 39 40 41 42 43 44 45 46 47 48 49 50

505
ASUS43 KOAX 302102
RWRNE

WEATHER ROUNDUP FOR NEBRASKA
NATIONAL WEATHER SERVICE OMAHA NE
400 PM CDT MON MAY 30 2016

NOTES: SATELLITE DATA IS BEING USED TO AUGMENT CLOUD COVER ABOVE
       12000 FEET.
       "FAIR" INDICATES FEW OR NO CLOUDS BELOW 12,000 FEET WITH NO
       SIGNIFICANT WEATHER AND/OR OBSTRUCTIONS TO VISIBILITY.

  * THESE STATIONS DO NOT REPORT WEATHER SUCH AS RAIN...SNOW OR FOG.

NEZ001>004-019>022-054>056-302200-
NEBRASKA PANHANDLE

CITY           SKY/WX    TMP DP  RH WIND       PRES   REMARKS
SCOTTSBLUFF    CLOUDY    73  41  31 SW13G22   29.94R
ALLIANCE       CLOUDY    76  45  33 W15       29.88S
CHADRON        CLOUDY    78  43  28 W18       29.84F
SIDNEY         TSTM      65  48  54 NW23      29.96R
$$

NEZ057>060-069>072-079>082-302200-
SOUTHWEST NEBRASKA

CITY           SKY/WX    TMP DP  RH WIND       PRES   REMARKS
NORTH PLATTE   SUNNY     80  57  45 S12       29.86F
IMPERIAL       SUNNY     81  53  37 S9        29.86F
LEXINGTON      SUNNY     81  56  42 S17G23    29.88F
MCCOOK         SUNNY     82  59  45 S20G25    29.86F
$$

NEZ005>010-023>029-035>040-094-302200-
NORTH CENTRAL NEBRASKA

CITY           SKY/WX    TMP DP  RH WIND       PRES   REMARKS
VALENTINE      CLOUDY    79  48  33 S16       29.81F
AINSWORTH      SUNNY     81  51  34 S17G23    29.84F
BROKEN BOW     SUNNY     81  54  39 S14       29.87F
ORD            MOSUNNY   83  57  41 S17G23    29.85F
$$

NEZ041-046>049-061>064-073>077-083>087-302200-
SOUTH CENTRAL NEBRASKA

CITY           SKY/WX    TMP DP  RH WIND       PRES   REMARKS
GRAND ISLAND   SUNNY     83  55  38 S16G23    29.89F
AURORA         SUNNY     83  51  33 S20G25    29.89F
HASTINGS       SUNNY     82  51  34 SW14G25   29.89F
KEARNEY *      SUNNY     82  54  36 SW18      29.89F
YORK           SUNNY     82  57  42 SW14G22   29.90F
$$

NEZ011>018-030>034-042>045-302200-
NORTHEAST NEBRASKA

CITY           SKY/WX    TMP DP  RH WIND       PRES   REMARKS
NORFOLK        MOSUNNY   83  55  38 S16G25    29.86F
ALBION         SUNNY     81  57  43 S16       29.88F
BLAIR          SUNNY     89  55  31 S13G23    29.88F
FREMONT        MOSUNNY   85  58  39 S12G17    29.88F
TEKAMAH        PTSUNNY   88  54  31 S16       29.86F
$$

NEZ050>053-065>068-078-088>093-302200-
SOUTHEAST NEBRASKA

CITY           SKY/WX    TMP DP  RH WIND       PRES   REMARKS
LINCOLN        SUNNY     86  59  39 SW16      29.88F
OMAHA EPPLEY   PTSUNNY   87  63  44 SE20      29.87F
BEATRICE       MOSUNNY   84  62  47 S14       29.90F
FALLS CITY     LGT RAIN  85  63  47 S15G24    29.91F
NEBRASKA CITY  CLOUDY    79  58  48 S13G25    29.91F
PLATTSMOUTH    MOSUNNY   83  62  50 SE8       29.90F
$$

NEZ044-045-051>053-067-302200-
OMAHA AREA

CITY           SKY/WX    TMP DP  RH WIND       PRES   REMARKS
OMAHA EPPLEY   PTSUNNY   87  63  44 SE20      29.87F
BLAIR          SUNNY     89  55  31 S13G23    29.88F
FREMONT        MOSUNNY   85  58  39 S12G17    29.88F
OFFUTT AFB     CLOUDY    83  62  47 SE14      29.87F
PLATTSMOUTH    MOSUNNY   83  62  50 SE8       29.90F
WAHOO          FAIR      88  56  33 SW16G23   29.88F
$$




USA.gov is the U.S. government's official web portal to all federal, state and local government web resources and services.